Location: Asheville, NC
(35.6000°N, 82.5500°W)
Time: 12:46:30
(UTC-05:00)

LilacSat-2 - Visible Passes

Search period start: 17 January 2018 00:00
Search period end: 27 January 2018 00:00
Orbit: 515 x 537 km, 97.5° (Epoch: 17 January)

Date Brightness Start Highest point End Pass type
(mag) Time Alt. Az. Time Alt. Az. Time Alt. Az.
17 Jan ? 06:45:55 10° N 06:49:38 58° WNW 06:53:20 10° SSW visible
17 Jan ? 19:01:08 10° WSW 19:02:24 11° W 19:03:39 10° WNW visible
18 Jan ? 06:34:10 10° N 06:37:58 86° W 06:41:42 10° SSW visible
18 Jan ? 18:48:11 10° SW 18:50:36 16° W 18:53:02 10° NW visible
19 Jan ? 06:22:29 10° NNE 06:26:15 65° E 06:29:57 10° S visible
19 Jan ? 18:35:47 10° SSW 18:38:49 22° W 18:41:53 10° NW visible
20 Jan ? 06:10:55 10° NNE 06:14:32 43° E 06:18:06 10° S visible
20 Jan ? 18:23:38 10° SSW 18:27:04 31° W 18:30:32 10° NW visible
21 Jan ? 05:59:25 10° NE 06:02:47 30° E 06:06:06 10° SSE visible
21 Jan ? 18:11:38 10° S 18:15:20 44° W 18:19:02 10° NNW visible
22 Jan ? 05:48:04 10° NE 05:51:01 21° E 05:53:56 10° SSE visible
23 Jan ? 05:36:58 10° ENE 05:39:14 15° E 05:41:30 10° SE visible
24 Jan ? 05:26:30 10° ENE 05:27:26 11° E 05:28:22 10° ESE visible
24 Jan ? 06:58:19 10° N 07:01:51 39° WNW 07:05:20 10° SW visible
25 Jan ? 06:46:29 10° N 06:50:10 57° WNW 06:53:51 10° SSW visible
25 Jan ? 19:01:53 10° WSW 19:02:58 11° W 19:04:02 10° WNW visible
26 Jan ? 06:34:42 10° N 06:38:29 84° WNW 06:42:13 10° SSW visible
26 Jan ? 18:48:49 10° SW 18:51:09 16° W 18:53:31 10° NW visible
